www.pogodaiklimat.ru

Погода и климат >> Архив погоды >> Россия >> Курганская область >> Шадринск


АРХИВ ПОГОДЫ в Шадринске

Время (UTC), дата Ветер
(напр.,м/с)
 
Видим.   Явления Облачность Т
(С)
Тd
(С)
f
(%)
Тe
(С)
Тes
(С)
Комфортность P
(гПа)
Po
(гПа)
Тmin
(С)
Tmax
(С)
R
(мм)
R24
(мм)
S
(см)
09 13.04 С 2 10 км 10/9 600 м
[Cb cap Ci sp]
+7.5 -3.6 45 +6 +7 1018.3 1007.3
12 13.04 С 3 10 км 9/8 600 м
[Cb cap Ci sp]
+7.0 -4.5 44 +5 +5 1018.9 1007.9
15 13.04 З 1 10 км 10/10 600 м
[Sc]
+4.9 -3.5 55 +4 +4 1019.3 1008.2 +8.5
18 13.04 ЮЗ 1 10 км 10/8 600 м
[Cb cap Ci sp]
+3.1 -2.5 67 +2 +2 1019.3 1008.1
21 13.04 штиль 0 10 км 10/10 600 м
[Cb cap]
+2.7 -2.3 70 +2 +2 1019.5 1008.3
00 14.04 СВ 4 10 км 10/10 600 м
[Cb cap]
+3.2 -3.8 60 -1 -1 1020.6 1009.5
03 14.04 СВ 5-10
{10}
200 м ливневой снег 10/10 300 м
[Cb cap]
-2.2 -3.5 91 -9 -9 1023.1 1011.7 -2.2 1 1
06 14.04 СВ 3
{10}
10 км {ливн. осадки} 10/10 600 м
[Cb cap]
+0.4 -6.1 62 -4 -4 1023.9 1012.5 -2.3
09 14.04 СВ 4 10 км 9/9 600 м
[Cb cap]
+2.2 -9.6 41 -2 -1 1024.4 1013.2
12 14.04 СВ 4 10 км 6/4 600 м
[Cb cap Ci sp]
+4.2 -12.1 29 +1 +2 1023.8 1012.6
15 14.04 СВ 2 10 км 4/4 600 м
[Sc]
+1.4 -12.9 34 -1 -1 1024.1 1012.8 +4.4 0.7
18 14.04 СВ 2 10 км ясно -1.8 -14.2 38 -5 -5 1024.8 1013.4
21 14.04 СВ 1 10 км ясно -4.5 -12.7 53 -6 -6 1024.5 1012.9
00 15.04 СВ 2 10 км ясно -6.3 -12.9 59 -10 -10 1024.1 1012.5
03 15.04 СВ 2 10 км ясно -4.0 -12.7 51 -8 -5 1023.4 1011.9 -7.4
06 15.04 С 2 10 км ясно +0.1 -15.9 29 -2 +7 1021.6 1010.3
09 15.04 З 3 10 км ясно +3.8 -14.7 24 +1 +10 опасность
простуды
1019.3 1008.2
12 15.04 СЗ 3 10 км ясно +4.9 -13.9 24 +3 +6 1016.7 1005.6
15 15.04 ЮЗ 2 10 км ясно +2.0 -14.3 29 -0 -0 1014.6 1003.4 +5.6
18 15.04 ЮЗ 4 10 км ясно +1.0 -13.8 32 -3 -3 1012.8 1001.6
21 15.04 З 3 10 км 4/0
[Ci sp]
-0.1 -12.5 39 -4 -4 1011.3 1000.1
00 16.04 ЮЗ 3 10 км 4/3 600 м
[Sc Ci sp]
-0.6 -10.5 47 -5 -5 1009.9 998.7
03 16.04 З 4 10 км 10/10 600 м
[Cb cap]
+1.5 -7.2 52 -3 -3 1008.0 996.9 -1.1
06 16.04 З 5
{10}
10 км 10/10 600 м
[Cb cap]
+4.4 -3.8 55 0 0 1006.5 995.6
09 16.04 З 5-11
{11}
10 км {ливн. осадки} 10/10 600 м
[Cb cap]
+4.7 -2.3 60 0 0 1005.4 994.5
12 16.04 С 2
{14}
4000 м слаб. ливневой снег 10/10 300 м
[Cb cap]
+1.1 -1.3 84 -2 -2 1006.2 995.1
15 16.04 ЮЗ 1 2000 м снег {ливн. осадки} 10/10 300 м
[Frnb Ns]
+0.1 -1.3 90 -2 -2 1006.2 995.1 +6.2 2
18 16.04 С 2 10 км в посл. час снег {ливн. осадки} 10/6 300 м
[Frnb As trans]
-1.7 -2.8 92 -6 -6 1007.9 996.7
21 16.04 С 4
{10}
2000 м снег 10/10 300 м
[Frnb Ns]
-3.8 -5.6 87 -10 -10 1011.1 999.8
00 17.04 С 5
{11}
10 км {снег} 10/10 600 м
[Sc]
-5.2 -10.4 67 -12 -12 1013.8 1002.4
03 17.04 СЗ 5
{11}
10 км 9/6 600 м
[Cb cap Ac trans Ci sp]
-7.1 -12.4 66 -14 -14 1016.7 1005.1 -7.4 4 6
06 17.04 С 6-11
{12}
10 км позёмок 9/9 600 м
[Cb cap]
-7.6 -14.4 58 -16 -15 1019.1 1007.5 -8.4
09 17.04 СЗ 6-12
{13}
10 км позёмок 9/9 600 м
[Cb cap]
-6.2 -13.2 58 -14 -13 1021.1 1009.5
12 17.04 С 5-10
{14}
10 км позёмок 9/9 600 м
[Cb cap]
-3.9 -12.6 51 -10 -10 1023.1 1011.7
15 17.04 С 3
{13}
10 км {метель} 3/3 600 м
[Sc]
-3.5 -15.3 40 -8 -8 1024.6 1013.1 -2.9
18 17.04 СЗ 2 10 км {метель} ясно -5.9 -14.4 51 -10 -10 1026.6 1015.0
21 17.04 штиль 0 10 км ясно -9.2 -13.6 70 -10 -10 1027.9 1016.1
00 18.04 ЮЗ 2 10 км ясно -9.1 -14.3 66 -13 -13 1029.0 1017.2
03 18.04 ЮЗ 3 10 км ясно -6.3 -14.4 53 -11 -9 1029.3 1017.7 -9.7 5
06 18.04 З 3 10 км 4/0
[Ci sp]
-0.4 -11.5 43 -4 +3 1029.2 1017.8
09 18.04 З 4 10 км 4/0
[Ci sp]
+2.6 -12.1 33 -1 +5 1029.1 1017.8
12 18.04 З 4 10 км ясно +4.3 -12.9 27 +1 +4 1028.3 1017.1
15 18.04 штиль 0 10 км 3/0
[Ci sp]
+1.1 -12.4 36 +1 +1 1027.5 1016.2 +4.7
18 18.04 штиль 0 10 км 3/0
[Ci sp]
-4.2 -9.5 67 -5 -5 1028.0 1016.5
21 18.04 СВ 1 10 км ясно -5.5 -7.8 84 -8 -8 1027.1 1015.5
00 19.04 штиль 0 10 км ясно -7.7 -10.1 83 -8 -8 1026.3 1014.6
03 19.04 З 1 10 км ясно -1.2 -10.5 49 -3 +1 1025.3 1013.9 -7.7 0
06 19.04 З 3 10 км ясно +5.9 -12.9 24 +4 +12 1023.5 1012.4
09 19.04 З 3 10 км ясно +7.8 -13.1 21 +6 +15 опасность
простуды
1021.5 1010.5
12 19.04 З 3 10 км ясно +8.5 -11.8 22 +7 +10 1020.2 1009.2
15 19.04 ЮЗ 1 10 км ясно +5.0 -11.6 29 +5 +5 1019.7 1008.6 +8.7
18 19.04 ЮЗ 1 10 км ясно -1.8 -8.9 58 -3 -3 1019.8 1008.4
21 19.04 ЮЗ 1 10 км ясно -3.6 -7.2 76 -6 -6 1019.7 1008.2
00 20.04 ЮЗ 1 10 км ясно -2.8 -7.1 72 -5 -5 1019.6 1008.2
03 20.04 З 2 10 км 8/8 600 м
[Cb cap]
+1.4 -4.2 66 -2 -1 1019.8 1008.6 -3.7

 

Местоположение метеостанции Шадринск (Курганская область, Россия): широта 56.07 долгота 63.65 высота над уровнем моря 89 м.

В архиве по умолчанию представлена погода в Шадринске за последнюю неделю. Архивные данные за месяц целиком и за предыдущие месяцы, начиная с января 2011 года, Вы можете получить, выбрав интересующий диапазон дат из раскрывающегося списка и нажав кнопку "Ввод!".


*Определитесь, кто Вы:
робот инопланетянин человек

Внимание! Время в таблицах - всемирное. Для получения местного времени необходимо прибавить поправку, которая равна 5 ч.

Смотрите также архив погоды в соседних городах и на ближайших метеорологических станциях:

Погода в Далматово (Курганская область, Россия) (50 км)
Погода в Бутке (Свердловская область, Россия) (73 км)
Погода в Шатрово (Курганская область, Россия) (79 км)
Погода в Шумихе (Курганская область, Россия) (96 км)
Погода в Камышлове (Свердловская область, Россия) (104 км)
Погода в Бродокалмаке (Челябинская область, Россия) (113 км)
Погода в Исетском (Тюменская область, Россия) (113 км)
Погода в Каменск-Уральском (Свердловская область, Россия) (117 км)
Погода в Памятном (Курганская область, Россия) (127 км)
Погода в Тугулыме (Свердловская область, Россия) (128 км)

Пояснения к столбцам:

Ветер - указаны скорость ветра в м/с - средняя за 10 мин, порывы в срок и между сроками (в фигурных скобках) и направление, откуда дует ветер: С - северный, СВ - северо-восточный, В - восточный, ЮВ - юго-восточный, Ю - южный, ЮЗ - юго-западный, З - западный, СЗ - северо-западный.
Видимость - горизонтальная дальность видимости в метрах или километрах. При видимости от 1 до 10 км при отсутствии осадков обычно наблюдается дымка, при ухудшении видимости до 1 км и менее - туман. В сухую погоду видимость может ухудшаться дымом, пылью или мглою.
Явления - указаны атмосферные явления, наблюдавшиеся в срок или в последний час перед сроком; фигурными скобками обозначены явления, наблюдавшиеся между сроками (за 1-3 часа до срока); квадратными скобками обозначены град или гололедные отложения с указанием их диаметра в мм.
Облачность - указаны через наклонную черту общая и нижняя облачность в баллах и высота нижней границы облаков в метрах; квадратными скобками обозначены формы облаков: Ci - перистые, Cs - перисто-слоистые, Cc - перисто-кучевые, Ac - высококучевые, As - высокослоистые, Sc - слоисто-кучевые, Ns - слоисто-дождевые, Cu - кучевые, Cb - кучево-дождевые. Подробнее классификацию облаков см. в Атласе облаков (PDF).
T - Температура воздуха - температура, измеренная на высоте 2 м над землей.
Td - Температура точки росы - температура, при понижении до которой содержащийся в воздухе водяной пар достигнет насыщения.
f - Относительная влажность воздуха - влажноcть воздуха, измеренная на высоте 2 м над землей.
Te - Эффективная температура - температура, которую ощущает одетый по сезону человек в тени. Характеристика душности погоды. При расчете учитывается влияние влажности воздуха и скорости ветра на теплоощущения человека.
Tes - Эффективная температура на солнце - температура, которую ощущает человек, с поправкой на солнечный нагрев. Характеристика знойности погоды. Зависит от высоты солнца над горизонтом, облачности и скорости ветра. Ночью, в пасмурную погоду, а также при ветре 12 м/с и более поправка равна нулю.
P - Атмосферное давление - приведенное к уровню моря атмосферное давление.
Po - Атмосферное давление - измеренное на уровне метеостанции атмосферное давление.
Tmin - Минимальная температура - минимум температуры воздуха на высоте 2 м над землей.
Tmax - Максимальная температура - максимум температуры воздуха на высоте 2 м над землей.
R - Количество осадков - Количество выпавших осадков за период времени, мм. При наведении курсора мыши на число - период времени, за который выпало указанное количество осадков.
R24 - Количество осадков - Количество выпавших осадков за 24 часа, мм.
S - Снежный покров - Высота снежного покрова, см. При наведении курсора мыши на число - состояние снежного покрова и степень покрытия местности в баллах.